Weather History for Burlington, IA

Change the Weather History Date:

Saturday, January 5, 2013

  Actual Average Record
Temperature  
Mean Temperature 29 °F 26 °F  
Max Temperature 37 °F 34 °F 58 °F (1900)
Min Temperature 21 °F 17 °F -20 °F (1999)
Degree Days  
Heating Degree Days 36 39  
Month to date heating degree days 216 195  
Since 1 July heating degree days 2409 2381  
Cooling Degree Days 0 0  
Month to date cooling degree days 0 0  
Year to date cooling degree days 0 0  
Moisture  
Dew Point 28 °F    
Average Humidity 87    
Maximum Humidity 92    
Minimum Humidity 81    
Precipitation  
Precipitation 0.03 in 0.04 in 1.96 in (1955)
Month to date precipitation 0.03 0.22  
Year to date precipitation 0.03 0.22  
Sea Level Pressure  
Sea Level Pressure 30.13 in    
Wind  
Wind Speed 10 mph (SSW)    
Max Wind Speed 20 mph    
Max Gust Speed 24 mph    
Visibility 8 miles    
Events Rain , Snow    
T = Trace of Precipitation, MM = Missing Value Source: NWS Daily Summary

Daily Weather History Graph

Daily Weather History Graph

Search for Another Location

Airport:

Trip Planner

Search our weather history database for the weather conditions in past years. The results will help you decide how hot, cold, wet, or windy it might be!

Date:

Astronomy

Jan. 05, 2013 Rise Set
Actual Time 7:28 AM CST 4:51 PM CST
Civil Twilight 6:58 AM CST 5:22 PM CST
Nautical Twilight 6:23 AM CST 5:56 PM CST
Astronomical Twilight 5:50 AM CST 6:29 PM CST
Moon 12:34 AM CST (1/5) 11:42 AM CST (1/5)
Length of Visible Light 10h 24m
Length of Day
9h 22m
Last Quarter, 44% of the Moon is Illuminated
Jan 5
Last Quarter
Jan 11
New
Jan 18
First Quarter
Jan 26
Full
Feb 3
Last Quarter

Hourly Weather History & Observations

Time (CST) Temp. Windchill Dew Point Humidity Pressure Visibility Wind Dir Wind Speed Gust Speed Precip Events Conditions
12:53 AM 27.0 °F 21.6 °F 21.9 °F 81% 30.23 in 9.0 mi SSW 4.6 mph - N/A   Clear
1:53 AM 24.1 °F 17.0 °F 19.9 °F 84% 30.24 in 10.0 mi South 5.8 mph - N/A   Clear
2:53 AM 23.0 °F 17.0 °F 19.0 °F 85% 30.24 in 10.0 mi South 4.6 mph - N/A   Clear
3:53 AM 21.9 °F 14.5 °F 19.0 °F 89% 30.23 in 10.0 mi SSW 5.8 mph - N/A   Clear
4:53 AM 24.1 °F 17.0 °F 19.9 °F 84% 30.21 in 10.0 mi SSW 5.8 mph - N/A   Clear
5:53 AM 21.9 °F 13.4 °F 19.0 °F 89% 30.20 in 10.0 mi South 6.9 mph - N/A   Clear
6:53 AM 25.0 °F 15.5 °F 19.9 °F 81% 30.19 in 10.0 mi SSW 9.2 mph - N/A   Clear
7:53 AM 25.0 °F 16.3 °F 21.0 °F 85% 30.22 in 9.0 mi SSW 8.1 mph - N/A   Clear
8:53 AM 28.0 °F 20.8 °F 24.1 °F 85% 30.21 in 10.0 mi SSW 6.9 mph - N/A   Clear
9:53 AM 30.9 °F 22.2 °F 26.1 °F 82% 30.23 in 10.0 mi SSW 10.4 mph - N/A   Mostly Cloudy
10:23 AM 33.8 °F 24.8 °F 26.6 °F 75% 30.20 in 8.0 mi WSW 12.7 mph - 0.00 in Snow Light Snow
10:35 AM 33.8 °F 24.8 °F 28.4 °F 81% 30.19 in 10.0 mi WSW 12.7 mph - N/A Rain Light Freezing Rain
10:53 AM 34.0 °F 25.0 °F 28.9 °F 82% 30.21 in 10.0 mi SW 12.7 mph - 0.00 in Rain Light Freezing Rain
11:03 AM 33.8 °F 24.8 °F 30.2 °F 87% 30.18 in 3.0 mi SW 12.7 mph - 0.00 in Snow Light Snow
11:05 AM 33.8 °F 25.3 °F 30.2 °F 87% 30.18 in 2.0 mi SW 11.5 mph - N/A Snow Light Snow
11:12 AM 33.8 °F 25.8 °F 30.2 °F 87% 30.18 in 1.2 mi SSW 10.4 mph - N/A Snow Light Snow
11:35 AM 33.8 °F 26.4 °F 30.2 °F 87% 30.15 in 0.8 mi South 9.2 mph - 0.01 in Snow Light Snow
11:42 AM 33.8 °F 25.8 °F 32.0 °F 93% 30.14 in 1.2 mi South 10.4 mph - 0.01 in Snow Light Snow
11:53 AM 33.1 °F 26.9 °F 32.0 °F 96% 30.15 in 3.0 mi South 6.9 mph - 0.01 in Snow Light Snow
12:53 PM 36.0 °F 28.0 °F 33.1 °F 89% 30.10 in 10.0 mi SSW 11.5 mph - 0.01 in   Overcast
1:53 PM 36.0 °F 27.5 °F 33.1 °F 89% 30.06 in 10.0 mi SSW 12.7 mph - N/A   Scattered Clouds
2:22 PM 35.6 °F 27.5 °F 33.8 °F 93% 30.04 in 10.0 mi SSW 11.5 mph - 0.01 in Rain Light Rain
2:53 PM 37.0 °F 27.7 °F 33.1 °F 86% 30.05 in 10.0 mi SW 16.1 mph 23.0 mph 0.01 in   Overcast
3:53 PM 36.0 °F 27.1 °F 33.1 °F 89% 30.05 in 10.0 mi SW 13.8 mph - N/A   Overcast
4:53 PM 36.0 °F 27.5 °F 32.0 °F 86% 30.06 in 10.0 mi SSW 12.7 mph - N/A   Overcast
5:53 PM 35.1 °F 26.9 °F 33.1 °F 92% 30.06 in 10.0 mi SSW 11.5 mph - N/A   Overcast
6:21 PM 35.6 °F 27.1 °F 33.8 °F 93% 30.03 in 10.0 mi SSW 12.7 mph - N/A   Overcast
6:53 PM 35.1 °F 26.4 °F 32.0 °F 89% 30.05 in 9.0 mi SSW 12.7 mph - N/A   Overcast
7:53 PM 35.1 °F 26.4 °F 32.0 °F 89% 30.05 in 9.0 mi SSW 12.7 mph - N/A   Overcast
8:53 PM 35.1 °F 26.4 °F 32.0 °F 89% 30.03 in 9.0 mi SW 12.7 mph - N/A   Overcast
9:53 PM 35.1 °F 26.4 °F 32.0 °F 89% 30.02 in 10.0 mi SW 12.7 mph - N/A   Overcast
10:33 PM 35.6 °F 28.6 °F 32.0 °F 87% 30.00 in 9.0 mi WSW 9.2 mph - N/A   Overcast
10:53 PM 36.0 °F 29.0 °F 32.0 °F 86% 30.02 in 10.0 mi West 9.2 mph - N/A   Overcast
11:53 PM 30.0 °F 21.1 °F 23.0 °F 75% 30.05 in 10.0 mi WNW 10.4 mph 24.2 mph N/A   Mostly Cloudy